NOAA 16 DEB, 41151

Orbit data source: Space-Track

NOAA 16 DEB, 41151 is space debris in SSO originally from a launch on Thu, 21 Sep 2000 UTC launched from the Air Force Western Test Range (AFWTR). Debris objects in space refer to the collection of defunct objects orbiting the Earth. Examples of debris include non-operational satellites, rocket bodies, and fragments generated from explosions, collisions, or faulty payload assembly.

Loading next visibility...
Identifier
41151, 2000-055CJ
Orbit
SSO
Country
Flag of USUS
Related business
Manufacturer
Unknown
Mission
Spacecraft
Bus & Motor
Unknown
Mass
Unknown
Launch date (UTC)
2000-09-21 (25 years ago)
Launch vehicle
Unknown
Launch site
Air Force Western Test Range (AFWTR)
Object type
Payload
Rocket body
Debris
Shape & HBR
Unknown shape, 0.1 m
Radar Cross Section
Small (<0.1 m²)

Expand to show TLE details & history
Last TLE update: 1 week ago

TLE from 1 week ago
0 NOAA 16 DEB
1 41151U 00055CJ  26067.23777589  .00006406  00000-0  32674-2 0  9991
2 41151  98.7950  71.9044 0056005 271.9387  87.5373 14.15204142525098
Epoch: 2026-03-08T05:42Z
TLE epoch observation values (Epoch: 2026-03-08T05:42:23.836Z)
Latitude
-0.00007°
Longitude
-179.64285°
Altitude
843.011 km
Speed
7.432 km/s
True Right ascension
04h 47m 37s
True Declination
0° 00' 00"
Sunlit
Object was in daylight at epoch
Visualization orbit readout
Latitude
Unknown
Longitude
Unknown
Altitude
Unknown
Speed
Unknown
Apparent Right ascension
Unknown
Apparent Declination
Unknown
Sunlit
N/A
Visualization observer readout
Local Sidereal Time
17:09:38
Azimuth
Unknown
Elevation
Unknown
Doppler factor
Unknown
Orbital elements
Apogee altitude
879.205 km
Perigee altitude
798.368 km
Semi-major axis
7,216.924 km
Eccentricity
0.0056
Inclination
98.795°
RAAN
71.9044°
Arg. of periapsis
271.9387°
True anomaly
88.17866°
Mean anomaly
87.5373°
Eccentric anomaly
87.85796°
Mean motion
3.5401 °/min
Orbital period
101.69 mins
BSTAR
0.0032674
Loading maneuver chart data...
Computing Atmospheric mass density...
Loading historical data...
Loading historical data...
Loading historical data...
Loading historical data...
Loading historical data...
Loading historical data...
Loading historical data...

Documentation

Showing up to 5 results
|